Theta_e
353 356 357 356 358 360 357 356 361 356 357 355 354 356 354 356 356 354 355 357 356 356 358 357 357 357 358 358 358 358 358 359 359 357 356 356 354 354 355 354 354 354 353
358 356 355 356 357 361 358 359 360 356 358 355 354 355 355 358 360 359 354 357 357 357 358 361 360 359 359 358 359 360 360 359 358 357 357 356 355 355 352 351 351 353 352
360 360 356 359 354 362 360 358 359 359 356 355 357 357 357 358 358 359 355 355 356 357 359 360 359 359 359 359 360 360 360 356 358 356 356 356 356 354 350 349 351 350 349
361 363 357 358 358 360 358 354 356 356 355 355 353 352 354 356 356 356 356 355 355 355 359 362 361 360 360 360 360 359 360 358 357 356 357 356 356 353 349 346 348 348 349
363 362 358 359 362 358 357 354 357 357 353 354 352 353 355 356 357 355 357 357 356 354 355 362 362 362 361 360 360 359 358 358 358 356 358 356 355 354 349 347 348 350 350
363 367 360 362 361 358 355 357 360 358 355 351 347 350 356 356 357 355 356 357 358 357 356 357 359 357 361 360 360 360 358 359 358 358 358 356 355 354 348 348 350 350 348
364 367 359 362 360 358 361 359 356 352 350 355 349 350 352 353 355 357 357 356 356 358 357 358 358 358 359 361 362 360 360 359 358 359 358 357 354 352 350 350 351 350 348
363 362 363 360 361 357 360 358 356 349 349 352 348 348 341 346 351 355 356 353 357 358 358 360 359 360 359 359 363 359 362 360 360 360 359 358 356 354 352 352 351 350 349
361 363 364 363 365 360 355 357 356 353 349 354 353 348 339 338 344 350 354 356 359 356 359 359 361 362 362 359 359 361 363 362 360 360 360 358 357 354 352 352 351 350 349
359 360 362 363 367 361 360 358 357 359 356 349 352 352 354 352 339 338 347 352 356 355 356 357 358 359 363 361 363 358 363 360 361 360 360 359 358 355 353 351 351 351 350
358 358 361 362 362 367 363 362 360 360 358 354 353 353 357 356 357 343 338 343 350 352 358 357 357 359 360 361 361 362 357 359 359 361 362 361 360 358 355 353 351 350 350
352 358 358 362 363 362 363 362 364 365 362 361 358 356 348 345 346 344 341 342 342 348 351 357 359 358 361 359 362 357 358 356 356 357 358 360 361 360 359 356 353 350 350
348 351 358 360 358 362 363 364 364 362 362 358 360 351 353 349 350 346 343 338 337 341 347 348 357 360 358 362 362 358 358 353 351 350 352 354 357 359 360 360 358 354 352
350 355 356 357 360 358 361 362 359 359 359 357 359 359 350 346 346 345 341 338 334 335 343 349 351 358 362 363 359 359 359 350 349 347 347 349 351 353 356 357 357 357 354
351 355 356 358 357 356 357 359 357 356 357 356 355 355 352 346 348 350 349 348 343 336 335 345 349 355 356 357 361 361 361 354 349 347 345 345 346 348 350 352 353 353 352
355 356 359 358 356 357 359 361 355 358 359 355 352 353 356 351 351 352 353 351 348 346 339 342 346 350 355 355 358 360 360 357 350 347 344 343 343 345 346 347 348 349 349
356 355 356 358 355 354 357 361 362 360 359 360 358 356 357 361 353 351 351 351 350 349 343 344 348 353 359 360 358 359 360 360 358 345 344 342 341 342 343 344 344 345 346
356 356 355 357 356 357 358 359 359 356 356 358 358 358 356 355 360 360 354 356 353 354 350 347 351 350 357 359 360 361 358 353 354 348 343 341 339 338 337 338 338 339 339
355 352 354 355 357 358 359 360 361 359 359 357 356 357 356 357 356 355 355 354 352 352 354 348 347 350 350 353 356 360 359 360 357 350 341 340 339 338 335 334 333 332 331
354 353 353 356 360 361 362 361 360 360 358 357 359 359 359 359 357 357 355 356 357 354 355 350 348 347 349 358 353 349 349 352 351 352 351 346 346 342 337 333 332 332 328
355 355 355 357 360 359 355 360 359 360 361 359 358 359 359 356 348 349 353 357 363 355 350 345 344 345 345 346 352 353 351 351 355 355 353 353 354 354 353 339 345 337 331
355 355 354 356 357 355 342 342 355 366 361 360 357 357 359 351 347 340 339 339 346 358 358 356 347 348 351 360 352 356 352 353 346 354 367 355 354 351 353 355 342 338 331
358 356 355 356 356 358 337 336 342 356 359 358 358 356 356 353 352 358 343 337 338 336 339 356 351 352 356 358 356 354 354 350 347 351 352 345 350 348 352 348 330 328 330
358 356 357 360 358 357 334 332 337 355 354 357 359 354 353 355 356 357 360 358 358 359 354 352 350 351 353 352 349 346 345 344 344 345 351 340 346 344 348 348 323 320 318
357 357 358 359 360 361 331 330 338 353 350 353 358 358 354 355 342 334 356 356 357 357 332 328 329 327 326 327 329 336 334 334 331 333 340 338 338 341 344 343 332 319 317
358 356 356 357 348 358 331 326 335 351 349 352 359 359 331 344 326 326 352 353 354 351 350 344 341 332 334 334 327 338 336 332 330 331 330 329 335 337 334 336 326 323 322
Wind_Speed
4 4 2 3 1 1 2 2 1 3 4 5 5 5 6 4 3 3 4 13 10 9 8 7 7 7 6 6 6 7 6 7 5 2 3 3 2 2 3 2 3 3 4
4 4 4 4 2 2 1 3 3 2 2 3 5 5 4 4 4 3 3 9 11 10 8 6 6 8 6 6 9 8 7 4 2 3 3 2 2 3 3 3 3 5 7
5 3 4 4 3 2 3 3 3 3 1 2 2 4 3 3 5 5 5 7 10 12 10 7 5 4 4 6 7 5 4 2 2 3 2 3 4 4 3 3 4 5 5
6 5 5 4 4 4 4 4 3 2 1 1 3 4 3 3 4 4 4 4 6 9 11 10 7 6 7 7 6 4 3 3 2 2 3 5 5 4 2 1 3 3 5
6 4 4 5 5 4 4 3 3 2 1 1 2 3 4 3 5 6 4 6 6 5 4 13 10 7 8 8 6 2 4 3 2 4 5 4 4 4 2 1 1 4 4
6 5 4 4 4 4 3 3 2 1 1 3 5 3 2 3 3 4 6 7 6 6 6 5 8 10 12 9 7 4 4 4 5 7 6 4 3 4 3 3 4 4 3
6 5 4 5 5 3 3 3 3 4 3 1 5 4 4 5 5 4 4 3 5 6 6 5 5 4 9 11 9 7 6 5 6 7 7 6 5 5 4 6 6 5 4
6 5 3 5 5 4 3 3 2 1 2 2 3 4 6 7 4 5 4 3 1 3 5 6 5 6 5 5 7 10 8 7 8 8 7 7 7 6 6 6 6 6 5
8 6 5 4 6 5 5 5 4 2 1 1 3 5 3 4 1 5 4 2 2 3 2 5 5 6 7 6 6 10 12 9 8 8 8 8 8 7 7 8 8 8 7
10 9 7 6 5 4 4 4 4 2 4 3 2 1 4 4 5 3 7 3 1 1 2 3 4 6 7 7 7 3 11 10 10 10 9 9 10 10 10 9 9 9 9
12 11 9 7 6 6 5 4 4 4 3 3 1 0 1 0 1 4 4 3 2 3 1 3 2 2 4 6 5 6 13 10 10 10 11 11 12 12 12 12 12 11 11
11 12 11 8 8 7 6 6 6 6 5 2 2 3 5 4 2 2 4 3 5 1 3 0 2 2 2 4 5 5 8 10 11 11 12 12 13 14 14 14 13 13 13
12 13 12 10 9 9 7 6 5 4 6 5 4 5 4 4 3 5 5 6 5 5 3 5 2 1 4 3 4 4 11 11 11 12 12 13 13 14 15 15 15 15 16
8 9 12 12 12 10 9 7 7 7 7 6 6 6 7 6 5 5 5 7 7 7 3 4 3 1 1 2 4 5 7 15 14 13 12 13 13 14 14 15 15 15 15
11 14 15 12 11 9 10 11 9 7 7 7 8 7 7 7 6 6 5 6 6 8 7 4 2 3 4 3 3 5 6 9 11 11 12 14 15 16 17 17 16 16 16
13 12 12 12 12 10 11 11 9 9 8 7 8 7 7 7 6 6 6 7 7 7 9 8 5 5 7 7 4 5 8 6 11 10 11 13 14 15 16 17 18 18 18
14 13 13 13 12 13 12 11 9 8 10 9 9 8 8 8 8 7 6 6 6 8 9 9 7 4 5 8 9 7 7 8 7 16 15 14 15 16 17 19 19 20 20
15 14 14 14 13 13 12 13 13 12 13 11 10 9 10 7 9 8 7 8 8 6 8 10 9 9 8 8 9 9 9 10 10 8 16 15 15 15 16 17 18 18 19
15 15 14 14 14 13 13 13 13 12 10 11 11 10 11 10 11 9 8 8 7 8 7 9 10 9 9 7 8 9 10 10 10 10 14 16 16 16 15 15 16 17 17
16 15 15 14 13 12 12 13 13 13 13 12 11 11 11 11 11 10 9 10 10 9 9 10 11 10 9 8 7 9 10 9 9 9 7 8 9 15 17 16 16 17 17
14 15 14 14 14 13 12 14 14 13 13 12 11 11 12 11 9 9 8 9 9 9 10 10 11 10 10 8 5 4 7 10 11 10 9 10 10 10 10 14 11 16 15
15 15 15 15 15 12 11 10 10 11 12 11 11 13 13 10 11 12 13 13 12 10 9 7 11 11 11 6 8 7 8 7 9 9 4 7 9 7 11 11 5 7 11
14 15 15 15 15 15 7 9 11 13 11 12 13 10 9 10 9 11 13 13 12 11 13 11 11 12 11 9 7 9 8 7 10 11 11 11 11 12 12 7 20 17 10
14 14 14 14 14 13 10 13 14 14 14 14 12 10 9 9 9 9 9 10 11 9 10 8 9 9 7 6 5 6 8 9 10 10 7 8 9 7 8 2 21 19 19
14 13 14 15 15 14 13 15 13 14 14 15 13 12 11 10 5 5 7 10 11 6 5 6 6 7 3 2 4 6 6 6 8 8 6 5 9 8 7 6 6 16 11
11 10 12 14 15 15 13 16 16 12 14 12 12 12 3 8 6 6 7 9 9 8 7 8 8 8 6 6 3 4 5 6 5 6 4 5 7 4 4 4 6 8 8
Wind_Direction
203 202 123 219 24 94 93 167 144 139 160 193 176 185 194 191 263 236 143 169 195 204 205 197 203 211 218 235 250 248 259 265 285 309 285 288 263 167 132 100 72 65 85
194 167 188 209 195 161 139 120 52 63 189 234 181 210 208 180 180 174 174 155 189 200 211 227 233 218 220 241 250 249 235 290 294 280 281 270 188 154 113 83 76 121 108
186 248 206 211 178 192 235 197 214 198 211 176 187 181 190 159 149 163 207 156 162 197 204 217 236 260 230 263 286 311 261 236 261 281 230 171 166 156 133 109 112 115 109
233 200 220 170 176 208 216 216 207 187 102 154 164 165 205 217 150 194 212 205 176 177 190 206 218 244 240 245 263 281 161 183 197 171 153 161 164 168 158 113 111 108 113
202 222 214 138 187 203 208 220 193 252 190 240 245 218 206 218 187 185 187 202 182 221 189 167 188 218 236 243 245 251 172 163 197 156 148 167 183 182 155 124 138 132 125
207 195 152 147 216 192 203 197 248 177 271 300 271 267 223 187 211 205 193 198 180 196 206 200 178 202 207 228 232 223 188 172 161 164 165 176 186 171 186 168 162 170 162
199 196 158 166 188 226 301 191 199 184 206 234 260 194 149 185 187 181 192 197 166 201 187 206 227 234 176 195 215 215 194 179 174 181 186 165 191 205 206 199 191 199 205
212 208 201 168 184 158 188 180 251 176 214 7 327 251 167 166 141 141 142 138 100 176 196 204 231 222 247 229 165 194 207 198 187 187 194 188 191 208 218 212 210 211 216
223 222 201 249 170 218 180 190 199 240 116 107 326 328 243 84 170 131 153 180 164 175 223 215 224 222 219 235 162 181 193 200 215 216 208 202 197 209 218 221 222 229 230
215 224 222 222 207 205 174 180 189 252 269 87 194 43 4 0 344 151 137 99 131 56 18 243 212 218 217 229 199 12 170 193 202 217 221 212 205 211 218 223 230 233 236
218 219 222 219 231 234 178 171 176 203 188 307 312 154 38 281 148 312 342 55 193 124 46 295 293 274 245 241 243 194 180 197 207 213 220 221 216 216 219 221 222 225 229
202 216 221 219 224 232 218 202 195 200 257 261 296 337 323 320 327 286 273 290 343 279 346 71 274 294 295 264 246 111 179 199 212 214 219 221 220 220 222 224 225 225 225
218 206 210 214 213 218 227 234 202 217 203 242 220 276 192 253 288 295 297 291 301 301 299 292 98 165 236 254 262 212 183 206 217 221 220 220 223 224 226 228 229 228 227
214 206 201 215 215 215 217 237 230 235 214 231 242 267 292 279 260 265 278 297 292 286 229 233 279 127 204 316 48 160 247 195 206 215 220 222 222 225 227 227 229 230 232
199 200 213 206 204 225 221 211 234 237 252 240 247 239 254 270 261 255 267 262 282 290 287 168 276 138 245 249 84 282 280 167 200 213 218 220 221 222 225 226 225 222 222
224 189 202 202 199 214 215 220 228 216 237 244 234 235 253 263 252 246 234 252 269 289 286 287 287 309 350 317 252 250 275 174 194 214 220 223 228 231 232 231 227 224 222
204 216 204 204 209 214 215 213 233 254 226 234 248 255 239 252 263 262 246 245 267 248 262 273 289 280 261 285 299 292 274 261 244 201 209 219 227 232 232 232 230 227 226
209 209 210 209 213 218 214 216 217 215 223 227 231 239 245 248 234 246 253 256 265 262 254 264 279 285 264 281 276 276 273 275 279 204 205 209 221 229 233 233 232 229 227
208 210 210 215 217 221 220 221 223 224 220 225 229 229 237 228 239 247 254 279 246 230 234 256 269 270 276 276 274 265 262 265 269 261 201 212 219 226 231 232 232 230 228
205 209 211 213 218 224 224 225 221 220 222 224 232 235 237 235 232 234 245 251 250 244 235 240 258 264 261 258 255 277 281 271 269 284 282 271 247 222 222 224 229 237 232
211 212 214 216 218 224 220 214 225 225 226 231 236 235 231 234 237 242 249 242 252 247 250 258 261 266 267 282 297 329 308 299 294 271 281 282 281 265 230 221 236 224 231
206 209 217 220 224 232 222 188 221 228 231 238 243 240 241 218 224 221 229 247 266 268 267 288 292 304 295 277 263 290 291 286 283 283 313 287 291 291 292 290 303 199 196
201 209 217 222 227 233 206 187 198 245 243 244 250 259 260 258 228 241 216 225 243 238 242 267 267 269 287 286 285 275 274 282 277 298 312 294 287 290 288 354 45 27 349
202 207 215 220 225 228 192 189 198 231 250 252 252 247 253 268 273 269 254 252 247 229 214 218 243 269 282 298 286 284 288 282 274 263 260 267 286 286 282 3 52 44 36
196 207 214 220 220 225 190 193 195 235 240 243 244 240 242 243 251 168 254 264 262 230 119 84 85 86 100 96 336 293 290 317 301 306 20 306 295 319 322 45 53 30 30
186 206 211 220 230 229 193 191 198 233 233 236 230 231 151 255 126 156 244 255 252 204 215 171 178 182 203 156 216 302 322 305 331 292 43 321 294 297 266 88 34 16 1